Location: Passau
(48.5830°N, 13.4830°E)
Time: 21:28:50
(UTC+02:00)

Vanguard 3 - Pass Details

Date: 22 May 2024
Orbit: 509 x 3231 km, 33.3° (Epoch: 16 June)

Event Time Altitude Azimuth Distance (km) Brightness Sun altitude
Rises 02:59:00 0° 271° (W) 6,510 11.5 -16.2°
Reaches altitude 10° 03:05:34 10° 254° (WSW) 5,856 11.1 -15.7°
Maximum altitude 03:15:13 17° 223° (SW) 5,554 10.7 -14.9°
Enters shadow 03:16:10 17° 219° (SW) 5,569 10.7 -14.8°
Drops below altitude 10° 03:25:19 10° 191° (S) 6,088 - -14.0°
Exits shadow 03:26:13 - 189° (S) 6,169 11.1 -13.9°
Sets 03:32:35 0° 174° (S) 6,865 11.4 -13.3°
